Location: Tel Aviv
(32.0670°N, 34.7670°E)
Time: 07:41:41
(UTC+02:00)

Explorer 7 - All Passes

Search period start: 29 November 2023 00:00
Search period end: 09 December 2023 00:00
Orbit: 472 x 641 km, 50.3° (Epoch: 28 November)

Date Brightness Start Highest point End Pass type
(mag) Time Alt. Az. Time Alt. Az. Time Alt. Az.
29 Nov - 00:07:49 10° NW 00:11:47 55° NE 00:15:57 10° ESE night (unlit)
29 Nov - 01:48:48 10° W 01:51:28 16° SW 01:54:13 10° SSW night (unlit)
29 Nov - 15:40:41 10° SSW 15:43:54 28° SE 15:47:04 10° ENE daylight
29 Nov - 17:20:35 10° W 17:23:44 26° NW 17:26:55 10° NNE visible
29 Nov - 22:25:53 10° N 22:28:01 14° NNE 22:30:12 10° ENE night (unlit)
30 Nov - 00:04:22 10° NW 00:08:24 83° NE 00:12:39 10° SE night (unlit)
30 Nov - 01:47:16 10° WSW 01:47:57 10° SW 01:48:39 10° SW night (unlit)
30 Nov - 15:36:51 10° SSW 15:40:25 45° SE 15:43:57 10° ENE daylight
30 Nov - 17:17:45 10° W 17:20:28 19° NNW 17:23:12 10° NNE visible
30 Nov - 22:22:01 10° NNW 22:24:47 18° NNE 22:27:39 10° ENE night (unlit)
01 Dec - 00:01:00 10° NW 00:04:58 64° SW 00:09:09 10° SE night (unlit)
01 Dec - 15:33:14 10° SW 15:36:57 76° SE 15:40:37 10° NE daylight
01 Dec - 17:15:08 10° WNW 17:17:13 14° NNW 17:19:17 10° N visible
01 Dec - 22:18:15 10° NNW 22:21:29 24° NE 22:24:50 10° E night (unlit)
01 Dec - 23:57:43 10° WNW 00:01:29 40° SW 00:05:26 10° SSE night (unlit)
02 Dec - 13:53:28 10° SE 13:54:01 10° SE 13:54:33 10° ESE daylight
02 Dec - 15:29:47 10° SW 15:33:29 67° NW 15:37:09 10° NE daylight
02 Dec - 17:12:56 10° NW 17:13:59 11° NNW 17:15:00 10° N visible
02 Dec - 22:14:33 10° NNW 22:18:06 33° NE 22:21:49 10° ESE night (unlit)
02 Dec - 23:54:35 10° WNW 23:57:57 26° SW 00:01:27 10° S night (unlit)
03 Dec - 13:47:56 10° S 13:50:24 17° SE 13:52:49 10° E daylight
03 Dec - 15:26:29 10° WSW 15:30:03 42° NW 15:33:34 10° NE daylight
03 Dec - 22:10:54 10° NW 22:14:40 49° NE 22:18:38 10° ESE night (unlit)
03 Dec - 23:51:43 10° W 23:54:21 17° SW 23:57:05 10° S night (unlit)
04 Dec - 13:43:36 10° S 13:46:48 26° SE 13:49:56 10° ENE daylight
04 Dec - 15:23:20 10° W 15:26:37 29° NW 15:29:51 10° NNE daylight
04 Dec - 20:29:05 10° N 20:30:46 12° NNE 20:32:29 10° NE night (unlit)
04 Dec - 22:07:19 10° NW 22:11:10 75° NE 22:15:14 10° SE night (unlit)
04 Dec - 23:49:46 10° WSW 23:50:43 11° SW 23:51:41 10° SW night (unlit)
05 Dec - 13:39:35 10° SSW 13:43:12 41° SE 13:46:43 10° ENE daylight
05 Dec - 15:20:19 10° W 15:23:11 21° NNW 15:26:02 10° NNE daylight
05 Dec - 20:24:58 10° N 20:27:25 16° NNE 20:29:55 10° ENE night (unlit)
05 Dec - 22:03:47 10° NW 22:07:37 70° SW 22:11:39 10° SE night (unlit)
06 Dec - 13:35:48 10° SW 13:39:36 68° SE 13:43:17 10° NE daylight
06 Dec - 15:17:29 10° WNW 15:19:47 15° NNW 15:22:04 10° N daylight
06 Dec - 20:21:02 10° NNW 20:24:00 22° NNE 20:27:04 10° E night (unlit)
06 Dec - 22:00:21 10° WNW 22:04:01 43° SW 22:07:51 10° SSE night (unlit)
07 Dec - 13:32:11 10° SW 13:36:00 75° NW 13:39:43 10° NE daylight
07 Dec - 15:14:59 10° NW 15:16:24 12° NNW 15:17:48 10° N daylight
07 Dec - 20:17:10 10° NNW 20:20:31 30° NE 20:23:59 10° E night (unlit)
07 Dec - 21:57:02 10° WNW 22:00:22 27° SW 22:03:48 10° S night (unlit)
08 Dec - 11:50:24 10° SSE 11:52:47 16° SE 11:55:07 10° E daylight
08 Dec - 13:28:42 10° WSW 13:32:25 47° NW 13:36:02 10° NE daylight
08 Dec - 20:13:22 10° NW 20:16:57 43° NE 20:20:42 10° ESE night (unlit)
08 Dec - 21:53:59 10° W 21:56:39 18° SW 21:59:23 10° S night (unlit)
